Regional Weather Roundup
Issued by NWS Northern Indiana

Home | Current Version | Previous Version | Text Only | Print | Product List | Glossary On
Versions: 1 2 3 4 5 6 7 8 9 10 11 12 13 14 15 16 17 18 19 20 21 22 23 24 25 26 27 28 29 30 31 32 33 34 35 36 37 38 39 40 41 42 43 44 45 46 47 48 49 50
000
ASUS43 KIWX 241410
RWRIWX

KIWX WEATHER ROUNDUP
NATIONAL WEATHER SERVICE NORTHERN INDIANA
1000 AM EDT THU APR 24 2014

NOTE: "FAIR" INDICATES FEW OR NO CLOUDS BELOW 12,000 FEET WITH NO
SIGNIFICANT WEATHER AND/OR OBSTRUCTIONS TO VISIBILITY.

* THESE STATIONS ARE NOT UNDER NWS QUALITY CONTROL. THEY ALSO MAY NOT
  REPORT WEATHER SUCH AS PRECIPITATION OR FOG.

INZ001>027-241500-
NORTHERN INDIANA

CITY           SKY/WX    TMP DP  RH WIND       PRES   REMARKS
GARY*          CLOUDY    54  36  50 SE12G23   30.01F
VALPARAISO     CLOUDY    52  35  52 SE13G22   30.03F
MICHIGAN CITY* CLOUDY    54  32  43 SE13G20   30.04S
LAPORTE*       CLOUDY    52  33  47 SE15G22   30.04F
SOUTH BEND     PTSUNNY   53  32  44 SE18      30.07F
ELKHART*       PTSUNNY   52  32  46 SE13      30.08F
GOSHEN         PTSUNNY   52  33  48 SE14      30.08F
MONTICELLO*    CLOUDY    52  36  53 SE13G20   30.02F
LOGANSPORT*    CLOUDY    54  32  43 SE17      30.06F
ROCHESTER*     CLOUDY    54  32  43 SE15      30.06F
WARSAW*        PTSUNNY   50  32  50 SE10G18   30.08F
ANGOLA*        MOSUNNY   46  30  53 SE9       30.11F
FORT WAYNE     PTSUNNY   50  27  40 SE15      30.11F
HUNTINGTON*    FAIR      52  28  40 SE12G18   30.09F
PERU/GRISSOM   CLOUDY    54  31  42 SE17G25   30.05F
MARION*        PTSUNNY   52  26  36 SE17G25   30.09F

$$
INZ028>050-241500-
CENTRAL INDIANA

CITY           SKY/WX    TMP DP  RH WIND       PRES   REMARKS
LAFAYETTE      CLOUDY    52  37  56 SE14G24   30.03F
KOKOMO*        CLOUDY    54  28  37 SE20      30.06F
MUNCIE*        PTSUNNY   51  23  33 SE22      30.09F
INDIANAPOLIS   CLOUDY    50  30  46 SE18G25   30.04F

$$
MIZ043>046-050>051-056>058-064>065-071>073-077>080-241500-
SOUTHWEST LOWER MICHIGAN

CITY           SKY/WX    TMP DP  RH WIND       PRES   REMARKS
BATTLE CREEK   CLOUDY    48  27  44 SE12      30.11F
BENTON HARBOR  CLOUDY    52  35  52 SE13      30.05F
COLDWATER*     CLOUDY    46  28  49 SE10      30.12S
HILLSDALE*     CLOUDY    47  20  34 SE13      30.13F
HOLLAND        LGT RAIN  48  38  68 E10       30.08F
GRAND RAPIDS   CLOUDY    50  31  48 SE10      30.10F
KALAMAZOO      CLOUDY    49  30  48 SE12G17   30.10F
STURGIS*       CLOUDY    48  30  49 SE12G17   30.10S
THREE RIVERS*  FAIR      51  30  44 SE13G20   30.10S

$$
OHZ001>008-015>018-024>025-241500-
NORTHWEST OHIO

CITY           SKY/WX    TMP DP  RH WIND       PRES   REMARKS
WAUSEON*       FAIR      48  19  32 SE13      30.15F
DEFIANCE       CLOUDY    49  24  37 SE10      30.15F
FINDLAY        PTSUNNY   49  19  30 E9        30.15S
TOLEDO EXPRESS PTSUNNY   48  21  34 SE9       30.17R
TOLEDO METCALF CLOUDY    46  18  32 SE10      30.19R
LIMA           PTSUNNY   49  20  31 SE14      30.14S

$$
&&



USA.gov is the U.S. government's official web portal to all federal, state and local government web resources and services.